owner,sensor,date,latitude,longitude,air_pressure(mBar),qcFlag 
COMPS,ioos:station:USF.COMPS:ANC:1,2011-03-01T00:00:00Z,28.1930,-82.7890,1017.3,1111122 
COMPS,ioos:station:USF.COMPS:ANC:1,2011-03-01T00:06:00Z,28.1930,-82.7890,1017.29,1111122 
COMPS,ioos:station:USF.COMPS:ANC:1,2011-03-01T00:12:00Z,28.1930,-82.7890,1017.37,1111122 
COMPS,ioos:station:USF.COMPS:ANC:1,2011-03-01T00:18:00Z,28.1930,-82.7890,1017.36,1111122 
COMPS,ioos:station:USF.COMPS:ANC:1,2011-03-01T00:24:00Z,28.1930,-82.7890,1017.4,1111122 
COMPS,ioos:station:USF.COMPS:ANC:1,2011-03-01T00:30:00Z,28.1930,-82.7890,1017.45,1111122 
COMPS,ioos:station:USF.COMPS:ANC:1,2011-03-01T00:36:00Z,28.1930,-82.7890,1017.52,1111122 
COMPS,ioos:station:USF.COMPS:ANC:1,2011-03-01T00:42:00Z,28.1930,-82.7890,1017.53,1111122 
COMPS,ioos:station:USF.COMPS:ANC:1,2011-03-01T00:48:00Z,28.1930,-82.7890,1017.48,1111122 
COMPS,ioos:station:USF.COMPS:ANC:1,2011-03-01T00:54:00Z,28.1930,-82.7890,1017.4,1111122 
COMPS,ioos:station:USF.COMPS:ANC:1,2011-03-01T01:00:00Z,28.1930,-82.7890,1017.4,1111122 
COMPS,ioos:station:USF.COMPS:ANC:1,2011-03-01T01:06:00Z,28.1930,-82.7890,1017.46,1111122 
COMPS,ioos:station:USF.COMPS:ANC:1,2011-03-01T01:12:00Z,28.1930,-82.7890,1017.53,1111122 
COMPS,ioos:station:USF.COMPS:ANC:1,2011-03-01T01:18:00Z,28.1930,-82.7890,1017.54,1111122 
COMPS,ioos:station:USF.COMPS:ANC:1,2011-03-01T01:24:00Z,28.1930,-82.7890,1017.62,1111122 
COMPS,ioos:station:USF.COMPS:ANC:1,2011-03-01T01:30:00Z,28.1930,-82.7890,1017.64,1111122 
COMPS,ioos:station:USF.COMPS:ANC:1,2011-03-01T01:36:00Z,28.1930,-82.7890,1017.77,1111122 
COMPS,ioos:station:USF.COMPS:ANC:1,2011-03-01T01:42:00Z,28.1930,-82.7890,1017.69,1111122 
COMPS,ioos:station:USF.COMPS:ANC:1,2011-03-01T01:48:00Z,28.1930,-82.7890,1017.73,1111122 
COMPS,ioos:station:USF.COMPS:ANC:1,2011-03-01T01:54:00Z,28.1930,-82.7890,1017.78,1111122 
COMPS,ioos:station:USF.COMPS:ANC:1,2011-03-01T02:00:00Z,28.1930,-82.7890,1017.8,1111122 
COMPS,ioos:station:USF.COMPS:ANC:1,2011-03-01T03:00:00Z,28.1930,-82.7890,1017.8,1111122 
COMPS,ioos:station:USF.COMPS:ANC:1,2011-03-01T04:00:00Z,28.1930,-82.7890,1017.6,1111122 
COMPS,ioos:station:USF.COMPS:ANC:1,2011-03-01T05:00:00Z,28.1930,-82.7890,1017.1,1111122 
COMPS,ioos:station:USF.COMPS:ANC:1,2011-03-01T06:00:00Z,28.1930,-82.7890,1016.7,1111122 
COMPS,ioos:station:USF.COMPS:ANC:1,2011-03-01T06:06:00Z,28.1930,-82.7890,1016.7,1111122 
COMPS,ioos:station:USF.COMPS:ANC:1,2011-03-01T06:12:00Z,28.1930,-82.7890,1016.57,1111122 
COMPS,ioos:station:USF.COMPS:ANC:1,2011-03-01T06:18:00Z,28.1930,-82.7890,1016.56,1111122 
COMPS,ioos:station:USF.COMPS:ANC:1,2011-03-01T06:24:00Z,28.1930,-82.7890,1016.54,1111122 
COMPS,ioos:station:USF.COMPS:ANC:1,2011-03-01T06:30:00Z,28.1930,-82.7890,1016.5,1111122 
COMPS,ioos:station:USF.COMPS:ANC:1,2011-03-01T06:36:00Z,28.1930,-82.7890,1016.5,1111122 
COMPS,ioos:station:USF.COMPS:ANC:1,2011-03-01T06:42:00Z,28.1930,-82.7890,1016.45,1111122 
COMPS,ioos:station:USF.COMPS:ANC:1,2011-03-01T06:48:00Z,28.1930,-82.7890,1016.42,1111122 
COMPS,ioos:station:USF.COMPS:ANC:1,2011-03-01T06:54:00Z,28.1930,-82.7890,1016.36,1111122 
COMPS,ioos:station:USF.COMPS:ANC:1,2011-03-01T07:00:00Z,28.1930,-82.7890,1016.4,1111122 
COMPS,ioos:station:USF.COMPS:ANC:1,2011-03-01T08:00:00Z,28.1930,-82.7890,1016.1,1111122 
COMPS,ioos:station:USF.COMPS:ANC:1,2011-03-01T08:06:00Z,28.1930,-82.7890,1016.04,1111122 
COMPS,ioos:station:USF.COMPS:ANC:1,2011-03-01T08:12:00Z,28.1930,-82.7890,1015.96,1111122 
COMPS,ioos:station:USF.COMPS:ANC:1,2011-03-01T08:18:00Z,28.1930,-82.7890,1015.9,1111122 
COMPS,ioos:station:USF.COMPS:ANC:1,2011-03-01T08:24:00Z,28.1930,-82.7890,1015.86,1111122 
COMPS,ioos:station:USF.COMPS:ANC:1,2011-03-01T08:30:00Z,28.1930,-82.7890,1015.7,1111122 
COMPS,ioos:station:USF.COMPS:ANC:1,2011-03-01T08:36:00Z,28.1930,-82.7890,1015.64,1111122 
COMPS,ioos:station:USF.COMPS:ANC:1,2011-03-01T08:42:00Z,28.1930,-82.7890,1015.69,1111122 
COMPS,ioos:station:USF.COMPS:ANC:1,2011-03-01T08:48:00Z,28.1930,-82.7890,1015.7,1111122 
COMPS,ioos:station:USF.COMPS:ANC:1,2011-03-01T08:54:00Z,28.1930,-82.7890,1015.69,1111122 
COMPS,ioos:station:USF.COMPS:ANC:1,2011-03-01T09:00:00Z,28.1930,-82.7890,1015.7,1111122 
COMPS,ioos:station:USF.COMPS:ANC:1,2011-03-01T09:06:00Z,28.1930,-82.7890,1015.61,1111122 
COMPS,ioos:station:USF.COMPS:ANC:1,2011-03-01T09:12:00Z,28.1930,-82.7890,1015.57,1111122 
COMPS,ioos:station:USF.COMPS:ANC:1,2011-03-01T09:18:00Z,28.1930,-82.7890,1015.46,1111122 
COMPS,ioos:station:USF.COMPS:ANC:1,2011-03-01T09:24:00Z,28.1930,-82.7890,1015.44,1111122 
COMPS,ioos:station:USF.COMPS:ANC:1,2011-03-01T09:30:00Z,28.1930,-82.7890,1015.36,1111122 
COMPS,ioos:station:USF.COMPS:ANC:1,2011-03-01T09:36:00Z,28.1930,-82.7890,1015.36,1111122 
COMPS,ioos:station:USF.COMPS:ANC:1,2011-03-01T09:42:00Z,28.1930,-82.7890,1015.34,1111122 
COMPS,ioos:station:USF.COMPS:ANC:1,2011-03-01T09:48:00Z,28.1930,-82.7890,1015.21,1111122 
COMPS,ioos:station:USF.COMPS:ANC:1,2011-03-01T09:54:00Z,28.1930,-82.7890,1015.21,1111122 
COMPS,ioos:station:USF.COMPS:ANC:1,2011-03-01T10:00:00Z,28.1930,-82.7890,1015.2,1111122 
COMPS,ioos:station:USF.COMPS:ANC:1,2011-03-01T11:00:00Z,28.1930,-82.7890,1015.7,1111122 
COMPS,ioos:station:USF.COMPS:ANC:1,2011-03-01T11:06:00Z,28.1930,-82.7890,1015.8,1111122 
COMPS,ioos:station:USF.COMPS:ANC:1,2011-03-01T11:12:00Z,28.1930,-82.7890,1015.72,1111122 
COMPS,ioos:station:USF.COMPS:ANC:1,2011-03-01T11:18:00Z,28.1930,-82.7890,1015.7,1111122 
COMPS,ioos:station:USF.COMPS:ANC:1,2011-03-01T11:24:00Z,28.1930,-82.7890,1015.69,1111122 
COMPS,ioos:station:USF.COMPS:ANC:1,2011-03-01T11:30:00Z,28.1930,-82.7890,1015.74,1111122 
COMPS,ioos:station:USF.COMPS:ANC:1,2011-03-01T11:36:00Z,28.1930,-82.7890,1015.8,1111122 
COMPS,ioos:station:USF.COMPS:ANC:1,2011-03-01T11:42:00Z,28.1930,-82.7890,1015.93,1111122 
COMPS,ioos:station:USF.COMPS:ANC:1,2011-03-01T11:48:00Z,28.1930,-82.7890,1015.97,1111122 
COMPS,ioos:station:USF.COMPS:ANC:1,2011-03-01T11:54:00Z,28.1930,-82.7890,1016.06,1111122 
COMPS,ioos:station:USF.COMPS:ANC:1,2011-03-01T12:00:00Z,28.1930,-82.7890,1016.1,1111122 
COMPS,ioos:station:USF.COMPS:ANC:1,2011-03-01T13:00:00Z,28.1930,-82.7890,1016.7,1111122 
COMPS,ioos:station:USF.COMPS:ANC:1,2011-03-01T14:00:00Z,28.1930,-82.7890,1017.6,1111122 
COMPS,ioos:station:USF.COMPS:ANC:1,2011-03-01T15:00:00Z,28.1930,-82.7890,1017.5,1111122 
COMPS,ioos:station:USF.COMPS:ANC:1,2011-03-01T16:00:00Z,28.1930,-82.7890,1017.8,1111122 
COMPS,ioos:station:USF.COMPS:ANC:1,2011-03-01T17:00:00Z,28.1930,-82.7890,1017.4,1111122 
COMPS,ioos:station:USF.COMPS:ANC:1,2011-03-01T17:06:00Z,28.1930,-82.7890,1017.33,1111122 
COMPS,ioos:station:USF.COMPS:ANC:1,2011-03-01T17:12:00Z,28.1930,-82.7890,1017.34,1111122 
COMPS,ioos:station:USF.COMPS:ANC:1,2011-03-01T17:18:00Z,28.1930,-82.7890,1017.37,1111122 
COMPS,ioos:station:USF.COMPS:ANC:1,2011-03-01T17:24:00Z,28.1930,-82.7890,1017.36,1111122 
COMPS,ioos:station:USF.COMPS:ANC:1,2011-03-01T17:30:00Z,28.1930,-82.7890,1017.32,1111122 
COMPS,ioos:station:USF.COMPS:ANC:1,2011-03-01T17:36:00Z,28.1930,-82.7890,1017.2,1111122 
COMPS,ioos:station:USF.COMPS:ANC:1,2011-03-01T17:42:00Z,28.1930,-82.7890,1017.04,1111122 
COMPS,ioos:station:USF.COMPS:ANC:1,2011-03-01T17:48:00Z,28.1930,-82.7890,1016.97,1111122 
COMPS,ioos:station:USF.COMPS:ANC:1,2011-03-01T17:54:00Z,28.1930,-82.7890,1016.96,1111122 
COMPS,ioos:station:USF.COMPS:ANC:1,2011-03-01T18:00:00Z,28.1930,-82.7890,1017.0,1111122 
COMPS,ioos:station:USF.COMPS:ANC:1,2011-03-01T19:00:00Z,28.1930,-82.7890,1016.1,1111122 
COMPS,ioos:station:USF.COMPS:ANC:1,2011-03-01T20:00:00Z,28.1930,-82.7890,1016.1,1111122 
COMPS,ioos:station:USF.COMPS:ANC:1,2011-03-01T21:00:00Z,28.1930,-82.7890,1016.2,1111122 
COMPS,ioos:station:USF.COMPS:ANC:1,2011-03-01T22:00:00Z,28.1930,-82.7890,1016.4,1111122 
COMPS,ioos:station:USF.COMPS:ANC:1,2011-03-01T23:00:00Z,28.1930,-82.7890,1016.7,1111122 
COMPS,ioos:station:USF.COMPS:ANC:1,2011-03-02T00:00:00Z,28.1930,-82.7890,1017.3,1111122 
COMPS,ioos:station:USF.COMPS:ANC:1,2011-03-02T01:00:00Z,28.1930,-82.7890,1018.4,1111122 
COMPS,ioos:station:USF.COMPS:ANC:1,2011-03-02T02:00:00Z,28.1930,-82.7890,1019.3,1111122 
COMPS,ioos:station:USF.COMPS:ANC:1,2011-03-02T03:00:00Z,28.1930,-82.7890,1019.7,1111122 
COMPS,ioos:station:USF.COMPS:ANC:1,2011-03-02T04:00:00Z,28.1930,-82.7890,1020.1,1111122 
COMPS,ioos:station:USF.COMPS:ANC:1,2011-03-02T05:00:00Z,28.1930,-82.7890,1019.9,1111122 
COMPS,ioos:station:USF.COMPS:ANC:1,2011-03-02T06:00:00Z,28.1930,-82.7890,1019.7,1111122 
COMPS,ioos:station:USF.COMPS:ANC:1,2011-03-02T06:06:00Z,28.1930,-82.7890,1019.62,1111122 
COMPS,ioos:station:USF.COMPS:ANC:1,2011-03-02T06:12:00Z,28.1930,-82.7890,1019.65,1111122 
COMPS,ioos:station:USF.COMPS:ANC:1,2011-03-02T06:18:00Z,28.1930,-82.7890,1019.65,1111122 
COMPS,ioos:station:USF.COMPS:ANC:1,2011-03-02T06:24:00Z,28.1930,-82.7890,1019.53,1111122 
COMPS,ioos:station:USF.COMPS:ANC:1,2011-03-02T06:30:00Z,28.1930,-82.7890,1019.46,1111122 
COMPS,ioos:station:USF.COMPS:ANC:1,2011-03-02T06:36:00Z,28.1930,-82.7890,1019.42,1111122 
COMPS,ioos:station:USF.COMPS:ANC:1,2011-03-02T06:42:00Z,28.1930,-82.7890,1019.42,1111122 
COMPS,ioos:station:USF.COMPS:ANC:1,2011-03-02T06:48:00Z,28.1930,-82.7890,1019.32,1111122 
COMPS,ioos:station:USF.COMPS:ANC:1,2011-03-02T06:54:00Z,28.1930,-82.7890,1019.22,1111122 
COMPS,ioos:station:USF.COMPS:ANC:1,2011-03-02T07:00:00Z,28.1930,-82.7890,1019.2,1111122 
COMPS,ioos:station:USF.COMPS:ANC:1,2011-03-02T07:06:00Z,28.1930,-82.7890,1019.21,1111122 
COMPS,ioos:station:USF.COMPS:ANC:1,2011-03-02T07:12:00Z,28.1930,-82.7890,1019.22,1111122 
COMPS,ioos:station:USF.COMPS:ANC:1,2011-03-02T07:18:00Z,28.1930,-82.7890,1019.21,1111122 
COMPS,ioos:station:USF.COMPS:ANC:1,2011-03-02T07:24:00Z,28.1930,-82.7890,1019.2,1111122 
COMPS,ioos:station:USF.COMPS:ANC:1,2011-03-02T07:30:00Z,28.1930,-82.7890,1019.16,1111122 
COMPS,ioos:station:USF.COMPS:ANC:1,2011-03-02T07:36:00Z,28.1930,-82.7890,1019.01,1111122 
COMPS,ioos:station:USF.COMPS:ANC:1,2011-03-02T07:42:00Z,28.1930,-82.7890,1018.92,1111122 
COMPS,ioos:station:USF.COMPS:ANC:1,2011-03-02T07:48:00Z,28.1930,-82.7890,1018.9,1111122 
COMPS,ioos:station:USF.COMPS:ANC:1,2011-03-02T07:54:00Z,28.1930,-82.7890,1018.89,1111122 
COMPS,ioos:station:USF.COMPS:ANC:1,2011-03-02T08:00:00Z,28.1930,-82.7890,1018.9,1111122 
COMPS,ioos:station:USF.COMPS:ANC:1,2011-03-02T09:00:00Z,28.1930,-82.7890,1018.7,1111122 
COMPS,ioos:station:USF.COMPS:ANC:1,2011-03-02T10:00:00Z,28.1930,-82.7890,1019.1,1111122 
COMPS,ioos:station:USF.COMPS:ANC:1,2011-03-02T10:06:00Z,28.1930,-82.7890,1019.16,1111122 
COMPS,ioos:station:USF.COMPS:ANC:1,2011-03-02T10:12:00Z,28.1930,-82.7890,1019.21,1111122 
COMPS,ioos:station:USF.COMPS:ANC:1,2011-03-02T10:18:00Z,28.1930,-82.7890,1019.24,1111122 
COMPS,ioos:station:USF.COMPS:ANC:1,2011-03-02T10:24:00Z,28.1930,-82.7890,1019.29,1111122 
COMPS,ioos:station:USF.COMPS:ANC:1,2011-03-02T10:30:00Z,28.1930,-82.7890,1019.32,1111122 
COMPS,ioos:station:USF.COMPS:ANC:1,2011-03-02T10:36:00Z,28.1930,-82.7890,1019.4,1111122 
COMPS,ioos:station:USF.COMPS:ANC:1,2011-03-02T10:42:00Z,28.1930,-82.7890,1019.52,1111122 
COMPS,ioos:station:USF.COMPS:ANC:1,2011-03-02T10:48:00Z,28.1930,-82.7890,1019.66,1111122 
COMPS,ioos:station:USF.COMPS:ANC:1,2011-03-02T10:54:00Z,28.1930,-82.7890,1019.78,1111122 
COMPS,ioos:station:USF.COMPS:ANC:1,2011-03-02T11:00:00Z,28.1930,-82.7890,1019.8,1111122 
COMPS,ioos:station:USF.COMPS:ANC:1,2011-03-02T11:06:00Z,28.1930,-82.7890,1019.84,1111122 
COMPS,ioos:station:USF.COMPS:ANC:1,2011-03-02T11:12:00Z,28.1930,-82.7890,1019.88,1111122 
COMPS,ioos:station:USF.COMPS:ANC:1,2011-03-02T11:18:00Z,28.1930,-82.7890,1019.94,1111122 
COMPS,ioos:station:USF.COMPS:ANC:1,2011-03-02T11:24:00Z,28.1930,-82.7890,1020.04,1111122 
COMPS,ioos:station:USF.COMPS:ANC:1,2011-03-02T11:30:00Z,28.1930,-82.7890,1020.08,1111122 
COMPS,ioos:station:USF.COMPS:ANC:1,2011-03-02T11:36:00Z,28.1930,-82.7890,1020.17,1111122 
COMPS,ioos:station:USF.COMPS:ANC:1,2011-03-02T11:42:00Z,28.1930,-82.7890,1020.21,1111122 
COMPS,ioos:station:USF.COMPS:ANC:1,2011-03-02T11:48:00Z,28.1930,-82.7890,1020.28,1111122 
COMPS,ioos:station:USF.COMPS:ANC:1,2011-03-02T11:54:00Z,28.1930,-82.7890,1020.29,1111122 
COMPS,ioos:station:USF.COMPS:ANC:1,2011-03-02T12:00:00Z,28.1930,-82.7890,1020.3,1111122 
COMPS,ioos:station:USF.COMPS:ANC:1,2011-03-02T12:06:00Z,28.1930,-82.7890,1020.37,1111122 
COMPS,ioos:station:USF.COMPS:ANC:1,2011-03-02T12:12:00Z,28.1930,-82.7890,1020.48,1111122 
COMPS,ioos:station:USF.COMPS:ANC:1,2011-03-02T12:18:00Z,28.1930,-82.7890,1020.53,1111122 
COMPS,ioos:station:USF.COMPS:ANC:1,2011-03-02T12:24:00Z,28.1930,-82.7890,1020.6,1111122 
COMPS,ioos:station:USF.COMPS:ANC:1,2011-03-02T12:30:00Z,28.1930,-82.7890,1020.73,1111122 
COMPS,ioos:station:USF.COMPS:ANC:1,2011-03-02T12:36:00Z,28.1930,-82.7890,1020.81,1111122 
COMPS,ioos:station:USF.COMPS:ANC:1,2011-03-02T12:42:00Z,28.1930,-82.7890,1020.88,1111122 
COMPS,ioos:station:USF.COMPS:ANC:1,2011-03-02T12:48:00Z,28.1930,-82.7890,1020.96,1111122 
COMPS,ioos:station:USF.COMPS:ANC:1,2011-03-02T12:54:00Z,28.1930,-82.7890,1021.02,1111122 
COMPS,ioos:station:USF.COMPS:ANC:1,2011-03-02T13:00:00Z,28.1930,-82.7890,1021.0,1111122 
COMPS,ioos:station:USF.COMPS:ANC:1,2011-03-02T14:00:00Z,28.1930,-82.7890,1021.6,1111122 
COMPS,ioos:station:USF.COMPS:ANC:1,2011-03-02T15:00:00Z,28.1930,-82.7890,1021.8,1111122 
COMPS,ioos:station:USF.COMPS:ANC:1,2011-03-02T15:06:00Z,28.1930,-82.7890,1021.77,1111122 
COMPS,ioos:station:USF.COMPS:ANC:1,2011-03-02T15:12:00Z,28.1930,-82.7890,1021.66,1111122 
COMPS,ioos:station:USF.COMPS:ANC:1,2011-03-02T15:18:00Z,28.1930,-82.7890,1021.66,1111122 
COMPS,ioos:station:USF.COMPS:ANC:1,2011-03-02T15:24:00Z,28.1930,-82.7890,1021.58,1111122 
COMPS,ioos:station:USF.COMPS:ANC:1,2011-03-02T15:30:00Z,28.1930,-82.7890,1021.56,1111122 
COMPS,ioos:station:USF.COMPS:ANC:1,2011-03-02T15:36:00Z,28.1930,-82.7890,1021.48,1111122 
COMPS,ioos:station:USF.COMPS:ANC:1,2011-03-02T15:42:00Z,28.1930,-82.7890,1021.42,1111122 
COMPS,ioos:station:USF.COMPS:ANC:1,2011-03-02T15:48:00Z,28.1930,-82.7890,1021.45,1111122 
COMPS,ioos:station:USF.COMPS:ANC:1,2011-03-02T15:54:00Z,28.1930,-82.7890,1021.48,1111122 
COMPS,ioos:station:USF.COMPS:ANC:1,2011-03-02T16:00:00Z,28.1930,-82.7890,1021.5,1111122 
COMPS,ioos:station:USF.COMPS:ANC:1,2011-03-02T16:06:00Z,28.1930,-82.7890,1021.42,1111122 
COMPS,ioos:station:USF.COMPS:ANC:1,2011-03-02T16:12:00Z,28.1930,-82.7890,1021.45,1111122 
COMPS,ioos:station:USF.COMPS:ANC:1,2011-03-02T16:18:00Z,28.1930,-82.7890,1021.37,1111122 
COMPS,ioos:station:USF.COMPS:ANC:1,2011-03-02T16:24:00Z,28.1930,-82.7890,1021.32,1111122 
COMPS,ioos:station:USF.COMPS:ANC:1,2011-03-02T16:30:00Z,28.1930,-82.7890,1021.3,1111122 
COMPS,ioos:station:USF.COMPS:ANC:1,2011-03-02T16:36:00Z,28.1930,-82.7890,1021.21,1111122 
COMPS,ioos:station:USF.COMPS:ANC:1,2011-03-02T16:42:00Z,28.1930,-82.7890,1021.14,1111122 
COMPS,ioos:station:USF.COMPS:ANC:1,2011-03-02T16:48:00Z,28.1930,-82.7890,1021.06,1111122 
COMPS,ioos:station:USF.COMPS:ANC:1,2011-03-02T16:54:00Z,28.1930,-82.7890,1020.89,1111122 
COMPS,ioos:station:USF.COMPS:ANC:1,2011-03-02T17:00:00Z,28.1930,-82.7890,1020.9,1111122 
COMPS,ioos:station:USF.COMPS:ANC:1,2011-03-02T18:00:00Z,28.1930,-82.7890,1020.0,1111122 
COMPS,ioos:station:USF.COMPS:ANC:1,2011-03-02T19:00:00Z,28.1930,-82.7890,1019.1,1111122 
COMPS,ioos:station:USF.COMPS:ANC:1,2011-03-02T20:00:00Z,28.1930,-82.7890,1018.0,1111122 
COMPS,ioos:station:USF.COMPS:ANC:1,2011-03-02T21:00:00Z,28.1930,-82.7890,1017.7,1111122 
COMPS,ioos:station:USF.COMPS:ANC:1,2011-03-02T22:00:00Z,28.1930,-82.7890,1017.9,1111122 
COMPS,ioos:station:USF.COMPS:ANC:1,2011-03-02T23:00:00Z,28.1930,-82.7890,1018.6,1111122 
COMPS,ioos:station:USF.COMPS:ANC:1,2011-03-03T00:00:00Z,28.1930,-82.7890,1019.5,1111122 
COMPS,ioos:station:USF.COMPS:ANC:1,2011-03-03T01:00:00Z,28.1930,-82.7890,1020.0,1111122 
COMPS,ioos:station:USF.COMPS:ANC:1,2011-03-03T02:00:00Z,28.1930,-82.7890,1020.9,1111122 
COMPS,ioos:station:USF.COMPS:ANC:1,2011-03-03T02:06:00Z,28.1930,-82.7890,1020.82,1111122 
COMPS,ioos:station:USF.COMPS:ANC:1,2011-03-03T02:12:00Z,28.1930,-82.7890,1020.82,1111122 
COMPS,ioos:station:USF.COMPS:ANC:1,2011-03-03T02:18:00Z,28.1930,-82.7890,1020.81,1111122 
COMPS,ioos:station:USF.COMPS:ANC:1,2011-03-03T02:24:00Z,28.1930,-82.7890,1020.89,1111122 
COMPS,ioos:station:USF.COMPS:ANC:1,2011-03-03T02:30:00Z,28.1930,-82.7890,1020.92,1111122 
COMPS,ioos:station:USF.COMPS:ANC:1,2011-03-03T02:36:00Z,28.1930,-82.7890,1020.93,1111122 
COMPS,ioos:station:USF.COMPS:ANC:1,2011-03-03T02:42:00Z,28.1930,-82.7890,1020.93,1111122 
COMPS,ioos:station:USF.COMPS:ANC:1,2011-03-03T02:48:00Z,28.1930,-82.7890,1021.0,1111122 
COMPS,ioos:station:USF.COMPS:ANC:1,2011-03-03T02:54:00Z,28.1930,-82.7890,1021.05,1111122 
COMPS,ioos:station:USF.COMPS:ANC:1,2011-03-03T03:00:00Z,28.1930,-82.7890,1021.1,1111122 
COMPS,ioos:station:USF.COMPS:ANC:1,2011-03-03T04:00:00Z,28.1930,-82.7890,1021.2,1111122 
COMPS,ioos:station:USF.COMPS:ANC:1,2011-03-03T04:06:00Z,28.1930,-82.7890,1020.96,1111122 
COMPS,ioos:station:USF.COMPS:ANC:1,2011-03-03T04:12:00Z,28.1930,-82.7890,1020.86,1111122 
COMPS,ioos:station:USF.COMPS:ANC:1,2011-03-03T04:18:00Z,28.1930,-82.7890,1020.76,1111122 
COMPS,ioos:station:USF.COMPS:ANC:1,2011-03-03T04:24:00Z,28.1930,-82.7890,1020.73,1111122 
COMPS,ioos:station:USF.COMPS:ANC:1,2011-03-03T04:30:00Z,28.1930,-82.7890,1020.77,1111122 
COMPS,ioos:station:USF.COMPS:ANC:1,2011-03-03T04:36:00Z,28.1930,-82.7890,1020.68,1111122 
COMPS,ioos:station:USF.COMPS:ANC:1,2011-03-03T04:42:00Z,28.1930,-82.7890,1020.56,1111122 
COMPS,ioos:station:USF.COMPS:ANC:1,2011-03-03T04:48:00Z,28.1930,-82.7890,1020.54,1111122 
COMPS,ioos:station:USF.COMPS:ANC:1,2011-03-03T04:54:00Z,28.1930,-82.7890,1020.56,1111122 
COMPS,ioos:station:USF.COMPS:ANC:1,2011-03-03T05:00:00Z,28.1930,-82.7890,1020.6,1111122 
COMPS,ioos:station:USF.COMPS:ANC:1,2011-03-03T06:00:00Z,28.1930,-82.7890,1020.3,1111122 
COMPS,ioos:station:USF.COMPS:ANC:1,2011-03-03T08:00:00Z,28.1930,-82.7890,1020.1,1111122 
COMPS,ioos:station:USF.COMPS:ANC:1,2011-03-03T09:00:00Z,28.1930,-82.7890,1020.0,1111122 
COMPS,ioos:station:USF.COMPS:ANC:1,2011-03-03T09:06:00Z,28.1930,-82.7890,1019.96,1111122 
COMPS,ioos:station:USF.COMPS:ANC:1,2011-03-03T09:12:00Z,28.1930,-82.7890,1019.96,1111122 
COMPS,ioos:station:USF.COMPS:ANC:1,2011-03-03T09:18:00Z,28.1930,-82.7890,1019.98,1111122 
COMPS,ioos:station:USF.COMPS:ANC:1,2011-03-03T09:24:00Z,28.1930,-82.7890,1020.04,1111122 
COMPS,ioos:station:USF.COMPS:ANC:1,2011-03-03T09:30:00Z,28.1930,-82.7890,1020.09,1111122 
COMPS,ioos:station:USF.COMPS:ANC:1,2011-03-03T09:36:00Z,28.1930,-82.7890,1020.18,1111122 
COMPS,ioos:station:USF.COMPS:ANC:1,2011-03-03T09:42:00Z,28.1930,-82.7890,1020.29,1111122 
COMPS,ioos:station:USF.COMPS:ANC:1,2011-03-03T09:48:00Z,28.1930,-82.7890,1020.29,1111122 
COMPS,ioos:station:USF.COMPS:ANC:1,2011-03-03T09:54:00Z,28.1930,-82.7890,1020.3,1111122 
COMPS,ioos:station:USF.COMPS:ANC:1,2011-03-03T10:00:00Z,28.1930,-82.7890,1020.3,1111122 
COMPS,ioos:station:USF.COMPS:ANC:1,2011-03-03T11:00:00Z,28.1930,-82.7890,1021.1,1111122 
COMPS,ioos:station:USF.COMPS:ANC:1,2011-03-03T12:00:00Z,28.1930,-82.7890,1021.8,1111122 
COMPS,ioos:station:USF.COMPS:ANC:1,2011-03-03T13:00:00Z,28.1930,-82.7890,1022.5,1111122 
COMPS,ioos:station:USF.COMPS:ANC:1,2011-03-03T15:00:00Z,28.1930,-82.7890,1023.0,1111122 
COMPS,ioos:station:USF.COMPS:ANC:1,2011-03-03T16:00:00Z,28.1930,-82.7890,1022.5,1111122 
COMPS,ioos:station:USF.COMPS:ANC:1,2011-03-03T17:00:00Z,28.1930,-82.7890,1022.0,1111122 
COMPS,ioos:station:USF.COMPS:ANC:1,2011-03-03T18:00:00Z,28.1930,-82.7890,1021.09,1111122 
COMPS,ioos:station:USF.COMPS:ANC:1,2011-03-03T18:06:00Z,28.1930,-82.7890,1020.93,1111122 
COMPS,ioos:station:USF.COMPS:ANC:1,2011-03-03T18:12:00Z,28.1930,-82.7890,1020.74,1111122 
COMPS,ioos:station:USF.COMPS:ANC:1,2011-03-03T18:18:00Z,28.1930,-82.7890,1020.77,1111122 
COMPS,ioos:station:USF.COMPS:ANC:1,2011-03-03T18:24:00Z,28.1930,-82.7890,1020.62,1111122 
COMPS,ioos:station:USF.COMPS:ANC:1,2011-03-03T18:30:00Z,28.1930,-82.7890,1020.6,1111122 
COMPS,ioos:station:USF.COMPS:ANC:1,2011-03-03T18:36:00Z,28.1930,-82.7890,1020.49,1111122 
COMPS,ioos:station:USF.COMPS:ANC:1,2011-03-03T18:42:00Z,28.1930,-82.7890,1020.44,1111122 
COMPS,ioos:station:USF.COMPS:ANC:1,2011-03-03T18:48:00Z,28.1930,-82.7890,1020.26,1111122 
COMPS,ioos:station:USF.COMPS:ANC:1,2011-03-03T18:54:00Z,28.1930,-82.7890,1020.3,1111122 
COMPS,ioos:station:USF.COMPS:ANC:1,2011-03-03T19:00:00Z,28.1930,-82.7890,1020.3,1111122 
COMPS,ioos:station:USF.COMPS:ANC:1,2011-03-03T19:06:00Z,28.1930,-82.7890,1020.06,1111122 
COMPS,ioos:station:USF.COMPS:ANC:1,2011-03-03T19:12:00Z,28.1930,-82.7890,1019.98,1111122 
COMPS,ioos:station:USF.COMPS:ANC:1,2011-03-03T19:18:00Z,28.1930,-82.7890,1020.01,1111122 
COMPS,ioos:station:USF.COMPS:ANC:1,2011-03-03T19:24:00Z,28.1930,-82.7890,1019.94,1111122 
COMPS,ioos:station:USF.COMPS:ANC:1,2011-03-03T19:30:00Z,28.1930,-82.7890,1019.89,1111122 
COMPS,ioos:station:USF.COMPS:ANC:1,2011-03-03T19:36:00Z,28.1930,-82.7890,1019.92,1111122 
COMPS,ioos:station:USF.COMPS:ANC:1,2011-03-03T19:42:00Z,28.1930,-82.7890,1019.85,1111122 
COMPS,ioos:station:USF.COMPS:ANC:1,2011-03-03T19:48:00Z,28.1930,-82.7890,1019.84,1111122 
COMPS,ioos:station:USF.COMPS:ANC:1,2011-03-03T19:54:00Z,28.1930,-82.7890,1019.81,1111122 
COMPS,ioos:station:USF.COMPS:ANC:1,2011-03-03T20:00:00Z,28.1930,-82.7890,1019.8,1111122 
COMPS,ioos:station:USF.COMPS:ANC:1,2011-03-03T21:00:00Z,28.1930,-82.7890,1019.7,1111122 
COMPS,ioos:station:USF.COMPS:ANC:1,2011-03-03T22:00:00Z,28.1930,-82.7890,1019.8,1111122 
COMPS,ioos:station:USF.COMPS:ANC:1,2011-03-03T23:00:00Z,28.1930,-82.7890,1020.3,1111122 
COMPS,ioos:station:USF.COMPS:ANC:1,2011-03-04T00:00:00Z,28.1930,-82.7890,1021.1,1111122 
COMPS,ioos:station:USF.COMPS:ANC:1,2011-03-04T01:00:00Z,28.1930,-82.7890,1021.9,1111122 
COMPS,ioos:station:USF.COMPS:ANC:1,2011-03-04T02:00:00Z,28.1930,-82.7890,1022.5,1111122 
COMPS,ioos:station:USF.COMPS:ANC:1,2011-03-04T03:00:00Z,28.1930,-82.7890,1022.9,1111122 
COMPS,ioos:station:USF.COMPS:ANC:1,2011-03-04T04:00:00Z,28.1930,-82.7890,1022.9,1111122 
COMPS,ioos:station:USF.COMPS:ANC:1,2011-03-04T05:00:00Z,28.1930,-82.7890,1023.0,1111122 
COMPS,ioos:station:USF.COMPS:ANC:1,2011-03-04T05:06:00Z,28.1930,-82.7890,1023.13,1111122 
COMPS,ioos:station:USF.COMPS:ANC:1,2011-03-04T05:12:00Z,28.1930,-82.7890,1023.14,1111122 
COMPS,ioos:station:USF.COMPS:ANC:1,2011-03-04T05:18:00Z,28.1930,-82.7890,1023.09,1111122 
COMPS,ioos:station:USF.COMPS:ANC:1,2011-03-04T05:24:00Z,28.1930,-82.7890,1023.01,1111122 
COMPS,ioos:station:USF.COMPS:ANC:1,2011-03-04T05:30:00Z,28.1930,-82.7890,1023.01,1111122 
COMPS,ioos:station:USF.COMPS:ANC:1,2011-03-04T05:36:00Z,28.1930,-82.7890,1022.97,1111122 
COMPS,ioos:station:USF.COMPS:ANC:1,2011-03-04T05:42:00Z,28.1930,-82.7890,1022.9,1111122 
COMPS,ioos:station:USF.COMPS:ANC:1,2011-03-04T05:48:00Z,28.1930,-82.7890,1022.98,1111122 
COMPS,ioos:station:USF.COMPS:ANC:1,2011-03-04T05:54:00Z,28.1930,-82.7890,1022.89,1111122 
COMPS,ioos:station:USF.COMPS:ANC:1,2011-03-04T06:00:00Z,28.1930,-82.7890,1022.9,1111122 
COMPS,ioos:station:USF.COMPS:ANC:1,2011-03-04T06:06:00Z,28.1930,-82.7890,1022.74,1111122 
COMPS,ioos:station:USF.COMPS:ANC:1,2011-03-04T06:12:00Z,28.1930,-82.7890,1022.7,1111122 
COMPS,ioos:station:USF.COMPS:ANC:1,2011-03-04T06:18:00Z,28.1930,-82.7890,1022.68,1111122 
COMPS,ioos:station:USF.COMPS:ANC:1,2011-03-04T06:24:00Z,28.1930,-82.7890,1022.7,1111122 
COMPS,ioos:station:USF.COMPS:ANC:1,2011-03-04T06:30:00Z,28.1930,-82.7890,1022.66,1111122 
COMPS,ioos:station:USF.COMPS:ANC:1,2011-03-04T06:36:00Z,28.1930,-82.7890,1022.54,1111122 
COMPS,ioos:station:USF.COMPS:ANC:1,2011-03-04T06:42:00Z,28.1930,-82.7890,1022.64,1111122 
COMPS,ioos:station:USF.COMPS:ANC:1,2011-03-04T06:48:00Z,28.1930,-82.7890,1022.5,1111122 
COMPS,ioos:station:USF.COMPS:ANC:1,2011-03-04T06:54:00Z,28.1930,-82.7890,1022.57,1111122 
COMPS,ioos:station:USF.COMPS:ANC:1,2011-03-04T07:00:00Z,28.1930,-82.7890,1022.6,1111122 